Simultaneous Nadir Overpasses (SNOs) Predictions

Prediction of SNOs between METOP-B and NOAA-19 Satellite Orbit:

Table of predicted SNOs for the next 14.0 days since TLE Epoch: 5/1/2021
Index Date (METOP-B) Time (METOP-B) Lat,Lon (METOP-B) SZA (METOP-B ) Date (NOAA-19) Time (NOAA-19) Lat,Lon (NOAA-19) SZA (NOAA-19 ) Distance(km) Time Diff (sec)
1 05/08/2021 20:45:14 -80.59, 78.18 115.42 05/08/2021 20:44:07 -80.58, 74.83 115.73 61.02 67
2 05/08/2021 21:35:59 80.49,-115.92 64.37 05/08/2021 21:35:04 80.50,-116.03 64.35 2.24 55
3 05/08/2021 22:26:40 -80.49, 51.40 115.65 05/08/2021 22:26:01 -80.48, 51.54 115.65 2.65 39
4 05/08/2021 23:17:21 80.48,-141.38 64.33 05/08/2021 23:17:04 80.49,-141.40 64.33 1.44 17
5 05/09/2021 00:08:02 -80.48, 25.95 115.68 05/09/2021 00:08:02 -80.49, 25.83 115.68 2.75 0
6 05/09/2021 00:58:43 80.47,-166.84 64.29 05/09/2021 00:59:04 80.48,-166.76 64.32 2.13 21
7 05/09/2021 01:49:24 -80.47, 0.49 115.72 05/09/2021 01:50:02 -80.49, 0.45 115.70 2.04 38
8 05/09/2021 02:40:04 80.48, 168.04 64.31 05/09/2021 02:41:04 80.48, 167.87 64.31 3.22 60



Historial Predications of SNOs between METOP-B and NOAA-19
